Tracking 27107 objects as of 20-Mar-2023
HD Live streaming from Space Station
objects crossing your sky now

STARLINK-3940

Track STARLINK-3940 now!
10-day predictions
STARLINK-3940 is classified as:


NORAD ID: 52540
Int'l Code: 2022-051H
Perigee: 545.9 km
Apogee: 547.8 km
Inclination: 53.2 °
Period: 95.4 minutes
Semi major axis: 6917 km
RCS: Unknown
Launch date: May 13, 2022
Source: United States (US)
Launch site: AIR FORCE WESTERN TEST RANGE (AFWTR)
Your satellite tracking list
Your tracking list is empty




NASA's NSSDC Master Catalog

Two Line Element Set (TLE):
1 52540U 22051H   23078.87707862  .00004421  00000-0  29562-3 0  9999
2 52540  53.2169 323.5257 0001331  79.1174 280.9968 15.08845323 47527
Source of the keplerian elements: AFSPC